This is the latest recevied weather packets stored in our database for station/object SQ9SMC-13. If no packets are shown the sender has not sent any weather packets the latest 10 day(s).
| Time | Temp. | Humidity | Pressure | Rain* | Wind** | Luminosity | Snow |
|---|---|---|---|---|---|---|---|
| 1777834204 | 14.44° C | 57% | 1017.2 hPa | 0 mm | - | 0 W/m² | - |
| 1777833903 | 15° C | 56% | 1017.2 hPa | 0 mm | - | 0 W/m² | - |
| 1777833603 | 15° C | 54% | 1017.1 hPa | 0 mm | - | 0 W/m² | - |
| 1777833303 | 15.56° C | 52% | 1017.2 hPa | 0 mm | - | 0 W/m² | - |
| 1777833002 | 16.11° C | 51% | 1017 hPa | 0 mm | - | 0 W/m² | - |
| 1777832703 | 16.67° C | 50% | 1017.2 hPa | 0 mm | - | 0 W/m² | - |
| 1777832402 | 17.22° C | 47% | 1016.9 hPa | 0 mm | - | 0 W/m² | - |
| 1777832103 | 18.33° C | 45% | 1017 hPa | 0 mm | - | 1 W/m² | - |
| 1777831804 | 18.89° C | 42% | 1017.2 hPa | 0 mm | - | 2 W/m² | - |
| 1777831506 | 20° C | 40% | 1017 hPa | 0 mm | - | 3 W/m² | - |
| 1777831204 | 21.11° C | 36% | 1016.9 hPa | 0 mm | - | 4 W/m² | - |
| 1777830903 | 21.67° C | 35% | 1017 hPa | 0 mm | - | 6 W/m² | - |
| 1777830604 | 21.67° C | 34% | 1016.8 hPa | 0 mm | - | 8 W/m² | - |
| 1777830305 | 21.67° C | 34% | 1016.9 hPa | 0 mm | - | 10 W/m² | - |
| 1777830003 | 22.22° C | 33% | 1016.7 hPa | 0 mm | - | 12 W/m² | - |
| 1777829704 | 22.22° C | 33% | 1017 hPa | 0 mm | - | 15 W/m² | - |
| 1777829402 | 22.78° C | 32% | 1016.9 hPa | 0 mm | - | 17 W/m² | - |
| 1777829104 | 22.78° C | 32% | 1016.9 hPa | 0 mm | - | 20 W/m² | - |
| 1777828803 | 22.78° C | 32% | 1016.9 hPa | 0 mm | - | 24 W/m² | - |
| 1777828504 | 22.78° C | 32% | 1016.9 hPa | 0 mm | - | 27 W/m² | - |
| 1777828203 | 23.33° C | 31% | 1016.8 hPa | 0 mm | - | 29 W/m² | - |
| 1777827903 | 23.33° C | 31% | 1016.8 hPa | 0 mm | - | 30 W/m² | - |
| 1777827605 | 23.33° C | 31% | 1016.9 hPa | 0 mm | - | 31 W/m² | - |
| 1777827305 | 23.33° C | 31% | 1016.8 hPa | 0 mm | - | 37 W/m² | - |
| 1777827002 | 23.89° C | 30% | 1016.8 hPa | 0 mm | - | 32 W/m² | - |
* Rain latest hour (hover to see other rain measurements)
** Current wind speed in m/s (hover to see current wind gust speed)